This is the latest recevied weather packets stored in our database for station/object VA3JLF-1. If no packets are shown the sender has not sent any weather packets the latest 10 day(s).
| Time | Temp. | Humidity | Pressure | Rain* | Wind** | Luminosity | Snow |
|---|---|---|---|---|---|---|---|
| 1777773358 | 5° C | 88% | 1011 hPa | 0 mm | - | - | - |
| 1777772758 | 5° C | 88% | 1010.9 hPa | 0 mm | - | - | - |
| 1777772158 | 5° C | 87% | 1010.9 hPa | 0 mm | - | - | - |
| 1777771558 | 5.56° C | 85% | 1010.9 hPa | 0 mm | - | - | - |
| 1777770958 | 5.56° C | 83% | 1010.8 hPa | 0 mm | - | - | - |
| 1777770366 | 5.56° C | - | - | - | - | - | - |
| 1777770358 | 5.56° C | 82% | 1010.6 hPa | 0 mm | - | - | - |
| 1777769758 | 5.56° C | 84% | 1010.6 hPa | 0 mm | - | - | - |
| 1777769158 | 5.56° C | 85% | 1010.6 hPa | 0 mm | - | - | - |
| 1777768557 | 5.56° C | 85% | 1010.3 hPa | 0 mm | - | - | - |
| 1777767958 | 5.56° C | 85% | 1010.5 hPa | 0 mm | - | - | - |
| 1777767366 | 5.56° C | 87% | 1010.4 hPa | 0 mm | - | - | - |
| 1777766758 | 5.56° C | 88% | 1010.2 hPa | 0 mm | - | - | - |
| 1777766158 | 5.56° C | 88% | 1010.2 hPa | 0 mm | - | - | - |
| 1777765558 | 5.56° C | 88% | 1010.3 hPa | 0 mm | - | - | - |
| 1777764958 | 5.56° C | 86% | 1010.3 hPa | 0 mm | - | - | - |
| 1777764358 | 5.56° C | 83% | 1010.3 hPa | 0 mm | - | - | - |
| 1777763758 | 5.56° C | 82% | 1010.4 hPa | 0 mm | - | - | - |
| 1777763160 | 5.56° C | 81% | 1010.2 hPa | 0 mm | - | - | - |
| 1777762558 | 6.11° C | 81% | 1010.2 hPa | 0 mm | - | - | - |
| 1777761959 | 6.11° C | 83% | 1010.3 hPa | 0 mm | - | - | - |
| 1777761358 | 6.11° C | 81% | 1010.1 hPa | 0 mm | - | - | - |
| 1777760759 | 6.11° C | 79% | 1010.2 hPa | 0 mm | - | - | - |
| 1777760160 | 6.67° C | 81% | 1010.4 hPa | 0 mm | - | - | - |
| 1777758959 | 6.67° C | 82% | 1010.3 hPa | 0 mm | - | - | - |
* Rain latest hour (hover to see other rain measurements)
** Current wind speed in m/s (hover to see current wind gust speed)